[[{"header":{"parameterUnit":"m.s-1","parameterCategory":1,"la1":30.2991,"la2":30.254,"lo1":-89.0895,"lo2":-89.0444,"dx":0.0017,"dy":0.0017,"nx":28,"ny":28,"refTime":"2023-01-12T15:00:00:Z","depth":0,"parameterNumber":2,"parameterNumberName":"U-component_of_WINDS"},"data":[0,0,0,0,0,0,0,0,0,0,0,0,0,0,0,0,0,0,0,0,0,0,0,0,0,0,0,0,0,0,0,0,0,0,0,0,0,0,0,0,0,0,0,0,0,0,0,0,0,0,0,0,0,0,0,0,0,0,1.3227,1.3227,0,1.3279,1.328,1.328,1.3328,1.3329,1.3329,1.333,1.3382,1.3383,1.3383,0,0,0,0,0,0,0,0,0,0,0,0,0,1.3167,1.3168,1.3227,1.3227,1.3228,1.3279,1.328,1.328,1.3328,1.3329,1.333,1.333,1.3382,1.3383,1.3384,0,0,0,0,0,0,0,0,0,0,0,0,0,1.3204,1.3168,1.3226,1.3258,1.3261,1.3279,1.328,1.3281,1.3328,1.3329,1.333,1.3331,1.3381,1.3382,1.3384,1.3374,0,0,1.3388,1.3388,0,0,0,0,0,0,0,0,1.3201,1.3206,1.3253,1.3256,1.326,1.3298,1.3278,1.3312,1.3328,1.3303,1.333,1.3331,1.3353,1.3357,1.3365,1.3376,1.3379,1.3388,1.3388,1.3389,1.3389,0,0,0,0,0,0,0,1.3199,1.3204,1.3247,1.3253,1.3257,1.3269,1.3275,1.3285,1.3322,1.3305,1.3308,1.3314,1.3355,1.3363,1.3366,1.3379,1.3388,1.3389,1.3389,1.339,1.3387,1.3386,0,0,0,0,0,0,1.3192,1.3201,1.3246,1.3249,1.3232,1.327,1.3276,1.3285,1.3322,1.3329,1.3313,1.3316,1.3361,1.3365,1.3368,1.336,1.3389,1.339,1.3391,1.3388,1.3387,1.3386,0,0,0,0,0,0,1.319,1.3195,1.3244,1.3226,1.3233,1.327,1.3279,1.3285,1.3293,1.3329,1.3336,1.3315,1.3362,1.3366,1.3373,1.3362,1.3391,1.3392,1.3389,1.3388,1.3386,1.3342,0,0,0,0,0,0,1.3188,1.3194,1.3191,1.3226,1.3234,1.3247,1.3278,1.3286,1.3296,1.33,1.3332,1.3338,1.3363,1.337,1.3374,1.3364,1.3393,1.339,1.3388,1.3387,1.3344,1.3339,1.3335,0,0,0,0,0,1.3186,1.3176,1.319,1.3195,1.323,1.3246,1.3251,1.328,1.3295,1.3291,1.3315,1.3337,1.3363,1.3371,1.3375,1.3365,1.3391,1.3389,1.3387,1.3346,1.334,1.3335,0,0,0,0,0,0,1.3137,1.3181,1.3198,1.3198,1.3218,1.3254,1.3251,1.3272,1.3288,1.3291,1.3326,1.3333,1.3335,1.3351,1.3359,1.3359,1.338,1.3379,1.3348,1.3342,1.3337,1.3333,1.3394,0,0,0,0,0,1.3127,1.3136,1.3174,1.317,1.318,1.3214,1.3221,1.3243,1.3264,1.3273,1.3296,1.3316,1.3329,1.3337,1.3351,1.3348,1.3355,1.3344,1.3339,1.3335,1.3333,1.3333,1.3328,1.338,1.338,1.338,0,0,1.3105,1.313,1.3133,1.3161,1.3179,1.3188,1.322,1.3228,1.3235,1.3274,1.3281,1.3299,1.3324,1.3326,1.3328,1.3339,1.3321,1.3332,1.3329,1.3329,1.3331,1.3326,1.3321,1.3379,1.3379,1.3379,0,0,1.3069,1.3089,1.3089,1.3107,1.3134,1.3157,1.3157,1.3191,1.3204,1.3212,1.3242,1.3251,1.3273,1.3289,1.3301,1.3274,1.3295,1.3278,1.3252,1.3252,1.3247,1.3244,1.3234,1.323,1.3276,1.3276,1.3276,0,1.3038,1.3052,1.3086,1.3092,1.3104,1.3141,1.3141,1.3157,1.3187,1.3194,1.3207,1.3236,1.3255,1.3262,1.3255,1.3264,1.3265,1.3273,1.3245,1.3242,1.324,1.3231,1.3227,1.3273,1.3274,1.3274,1.3274,0,1.3013,1.3023,1.3019,1.3049,1.306,1.3063,1.3097,1.3105,1.3126,1.3147,1.3156,1.3181,1.3201,1.3204,1.3224,1.3214,1.322,1.3239,1.3261,1.3232,1.3224,1.3221,1.327,1.3271,1.3272,1.3272,0,0,1.2945,1.2995,1.2993,1.3007,1.3041,1.3049,1.3055,1.3075,1.3081,1.3101,1.3107,1.3125,1.3143,1.3156,1.3179,1.3179,1.3156,1.3198,1.3199,1.3188,1.3146,1.3131,1.3126,1.3171,1.3171,1.317,1.3144,0,1.2914,1.2926,1.2957,1.2959,1.2969,1.3006,1.3011,1.3033,1.3054,1.3065,1.3089,1.3101,1.3124,1.3132,1.3134,1.3158,1.3148,1.3161,1.3176,1.3176,1.3167,1.3122,1.3106,1.308,1.3141,1.3141,1.314,0,1.2879,1.2898,1.2901,1.2936,1.2941,1.2945,1.2967,1.2978,1.3003,1.3019,1.3034,1.306,1.3068,1.309,1.3102,1.311,1.3118,1.3131,1.3131,1.3132,1.3155,1.3121,1.3072,1.3068,1.3136,1.3136,1.3137,0,1.2828,1.2855,1.286,1.2872,1.2913,1.2915,1.2932,1.2959,1.2969,1.2989,1.2996,1.3016,1.3027,1.3042,1.3072,1.3085,1.3081,1.3105,1.3093,1.3092,1.3089,1.3088,1.3039,1.3096,1.3097,1.3097,1.3097,0,1.2789,1.279,1.2838,1.2842,1.2844,1.288,1.2881,1.2902,1.2926,1.2934,1.2968,1.2975,1.3015,1.3027,1.3051,1.3057,1.3062,1.3075,1.3081,1.3071,1.3069,1.3075,1.3077,1.3096,1.3096,1.3096,1.3096,0,1.2732,1.2765,1.2773,1.2813,1.2822,1.2822,1.2856,1.286,1.2885,1.2895,1.2899,1.2937,1.2952,1.2985,1.301,1.3026,1.3026,1.3038,1.3017,1.3021,1.3007,1.3008,1.2959,1.2955,1.3016,1.3015,1.3015,0,1.2704,1.2706,1.2745,1.2754,1.277,1.2782,1.2794,1.2831,1.2842,1.2873,1.2874,1.2892,1.2909,1.2933,1.2962,1.2982,1.2993,1.2975,1.2996,1.2987,1.2992,1.2991,1.2991,1.297,1.2969,1.2968,1.2968,0,1.2651,1.2668,1.2683,1.2705,1.2719,1.2737,1.2758,1.2763,1.2805,1.2815,1.2832,1.2845,1.2871,1.2889,1.2914,1.2932,1.2956,1.2961,1.296,1.2948,1.2936,1.2942,1.3003,1.2962,1.2962,1.2963,1.2963,1.2963,1.2607,1.2611,1.2639,1.2656,1.2676,1.2695,1.2701,1.2727,1.2742,1.2767,1.2788,1.2803,1.2831,1.2866,1.2883,1.2895,1.2907,1.2905,1.2904,1.2902,1.2898,1.2936,1.29,1.29,1.29,1.29,1.2901,0,1.2555,1.2576,1.2591,1.262,1.2633,1.2657,1.2682,1.2691,1.2704,1.2728,1.2745,1.2765,1.2783,1.2815,1.2836,1.284,1.2852,1.2845,1.2844,1.2848,1.2886,1.2885,1.2835,1.2835,1.2835,1.2835,1.2835,1.2835,1.253,1.2536,1.2557,1.2574,1.2596,1.2611,1.2623,1.2641,1.266,1.2682,1.2697,1.2719,1.2746,1.277,1.2788,1.2797,1.2803,1.2791,1.2804,1.2839,1.2845,1.2851,1.285,1.2792,1.2792,1.2764,1.2764,1.2763]},{"header":{"parameterUnit":"m.s-1","parameterCategory":1,"la1":30.2991,"la2":30.254,"lo1":-89.0895,"lo2":-89.0444,"dx":0.0017,"dy":0.0017,"nx":28,"ny":28,"refTime":"2023-01-12T15:00:00:Z","depth":0,"parameterNumber":3,"parameterNumberName":"V-component_of_WINDS"},"data":[0,0,0,0,0,0,0,0,0,0,0,0,0,0,0,0,0,0,0,0,0,0,0,0,0,0,0,0,0,0,0,0,0,0,0,0,0,0,0,0,0,0,0,0,0,0,0,0,0,0,0,0,0,0,0,0,0,0,-5.8111,-5.8113,0,-5.8278,-5.828,-5.8282,-5.8211,-5.8207,-5.8203,-5.8199,-5.8367,-5.8375,-5.8383,0,0,0,0,0,0,0,0,0,0,0,0,0,-5.7725,-5.7733,-5.8111,-5.8113,-5.8115,-5.8278,-5.828,-5.8282,-5.8211,-5.8207,-5.8202,-5.8197,-5.8364,-5.8374,-5.8383,0,0,0,0,0,0,0,0,0,0,0,0,0,-5.7893,-5.7735,-5.811,-5.8099,-5.81,-5.8277,-5.828,-5.8283,-5.8212,-5.8206,-5.82,-5.8195,-5.8361,-5.8373,-5.8385,-5.8582,0,0,-5.8422,-5.8428,0,0,0,0,0,0,0,0,-5.7883,-5.7907,-5.8099,-5.81,-5.8101,-5.8217,-5.8206,-5.8383,-5.8214,-5.817,-5.8199,-5.8192,-5.8322,-5.8337,-5.8381,-5.859,-5.8597,-5.8424,-5.8431,-5.8436,-5.844,0,0,0,0,0,0,0,-5.7872,-5.7899,-5.8177,-5.8102,-5.8103,-5.8084,-5.8102,-5.8239,-5.8277,-5.8173,-5.8168,-5.8189,-5.8321,-5.837,-5.8385,-5.86,-5.8423,-5.8434,-5.8442,-5.8447,-5.8977,-5.8983,0,0,0,0,0,0,-5.7861,-5.789,-5.8171,-5.8182,-5.7975,-5.8096,-5.8115,-5.8186,-5.8276,-5.8284,-5.8194,-5.8185,-5.8352,-5.837,-5.839,-5.8626,-5.8436,-5.8448,-5.8455,-5.897,-5.8978,-5.8985,0,0,0,0,0,0,-5.7853,-5.7886,-5.8165,-5.8035,-5.8069,-5.8109,-5.819,-5.8193,-5.8241,-5.8292,-5.8298,-5.8237,-5.8347,-5.8373,-5.8535,-5.8631,-5.8453,-5.8465,-5.8962,-5.8973,-5.8982,-5.9101,0,0,0,0,0,0,-5.7842,-5.7884,-5.796,-5.8037,-5.8076,-5.8308,-5.8196,-5.82,-5.8263,-5.8253,-5.8334,-5.8341,-5.8345,-5.8517,-5.8547,-5.8645,-5.8474,-5.8954,-5.8967,-5.8979,-5.9088,-5.9114,-5.9135,0,0,0,0,0,-5.7828,-5.7987,-5.7965,-5.7999,-5.8173,-5.8314,-5.8336,-5.8338,-5.8271,-5.8348,-5.838,-5.8338,-5.8616,-5.8534,-5.8568,-5.8671,-5.8948,-5.8963,-5.8978,-5.9078,-5.9109,-5.9135,0,0,0,0,0,0,-5.7919,-5.7997,-5.7973,-5.8161,-5.8232,-5.8302,-5.8398,-5.8371,-5.8461,-5.8447,-5.8445,-5.8464,-5.8631,-5.8667,-5.8574,-5.8865,-5.8771,-5.8794,-5.8836,-5.8866,-5.8889,-5.8876,-5.8484,0,0,0,0,0,-5.7961,-5.8071,-5.8132,-5.8292,-5.8329,-5.8358,-5.8419,-5.8415,-5.8487,-5.8516,-5.856,-5.8631,-5.8734,-5.8802,-5.8899,-5.9093,-5.9109,-5.918,-5.9204,-5.9223,-5.9242,-5.9346,-5.9378,-5.9035,-5.9035,-5.9034,0,0,-5.8049,-5.8105,-5.8174,-5.8312,-5.8366,-5.8478,-5.8383,-5.8506,-5.8589,-5.8534,-5.869,-5.8725,-5.8804,-5.8982,-5.9063,-5.9017,-5.934,-5.9242,-5.9257,-5.9266,-5.9365,-5.9397,-5.9426,-5.9045,-5.9043,-5.9042,0,0,-5.8266,-5.832,-5.8459,-5.8515,-5.8599,-5.8617,-5.865,-5.8725,-5.8746,-5.8903,-5.8864,-5.8961,-5.9139,-5.9196,-5.9249,-5.9487,-5.9452,-5.9519,-5.9641,-5.9742,-5.9769,-5.9793,-5.9877,-5.9908,-5.9538,-5.9538,-5.9539,0,-5.8365,-5.8534,-5.8534,-5.866,-5.8721,-5.8678,-5.8818,-5.8872,-5.8982,-5.9025,-5.8972,-5.9194,-5.9244,-5.9435,-5.9493,-5.9537,-5.9574,-5.951,-5.9766,-5.979,-5.9812,-5.9892,-5.9924,-5.9546,-5.9545,-5.9544,-5.9544,0,-5.865,-5.8767,-5.8869,-5.8978,-5.9051,-5.9183,-5.9202,-5.9275,-5.9264,-5.9287,-5.9446,-5.9504,-5.9612,-5.9657,-5.9648,-5.9847,-5.9816,-5.9765,-5.967,-5.9852,-5.9928,-5.9958,-5.9557,-5.9554,-5.9552,-5.955,0,0,-5.893,-5.9037,-5.9074,-5.9122,-5.9211,-5.9301,-5.9431,-5.9538,-5.96,-5.9677,-5.9785,-5.9936,-5.9889,-5.9949,-5.9945,-6.0034,-6.0218,-5.9972,-5.9973,-6.0015,-6.044,-6.0477,-6.0513,-6.0195,-6.0201,-6.0206,-6.0433,0,-5.9153,-5.9382,-5.9385,-5.9594,-5.9702,-5.9662,-5.9775,-5.9841,-5.9866,-5.9959,-5.9986,-6.0093,-6.0024,-6.0059,-6.0146,-6.0177,-6.0303,-6.0161,-6.0294,-6.0299,-6.0275,-6.0552,-6.0593,-6.0805,-6.0462,-6.0467,-6.0471,0,-5.9444,-5.9532,-5.9753,-5.9825,-5.987,-5.9972,-6.0069,-6.016,-6.0233,-6.0244,-6.0311,-6.0294,-6.0424,-6.0326,-6.0505,-6.0408,-6.0462,-6.0486,-6.0494,-6.0506,-6.0396,-6.0571,-6.0872,-6.0904,-6.0517,-6.0514,-6.051,0,-5.9625,-5.9798,-5.9953,-5.9995,-6.0084,-6.0156,-6.0195,-6.0263,-6.0326,-6.0411,-6.0452,-6.0551,-6.0605,-6.0681,-6.069,-6.0618,-6.0869,-6.0772,-6.0882,-6.0882,-6.0936,-6.0933,-6.125,-6.0973,-6.0972,-6.0971,-6.0971,0,-5.9874,-6.0011,-6.0035,-6.013,-6.0281,-6.0283,-6.0431,-6.0465,-6.0525,-6.0624,-6.0596,-6.0689,-6.0696,-6.0791,-6.0799,-6.0945,-6.097,-6.0982,-6.0982,-6.0985,-6.0983,-6.102,-6.1005,-6.098,-6.0978,-6.0976,-6.0975,0,-6.0102,-6.0124,-6.0289,-6.0359,-6.038,-6.0488,-6.0547,-6.0637,-6.0659,-6.0785,-6.0814,-6.0848,-6.096,-6.0976,-6.1106,-6.1111,-6.1287,-6.1272,-6.1263,-6.126,-6.1369,-6.1358,-6.172,-6.1767,-6.146,-6.1463,-6.1465,0,-6.0259,-6.0363,-6.0445,-6.051,-6.0554,-6.0659,-6.0724,-6.0729,-6.0798,-6.0888,-6.0967,-6.1075,-6.1162,-6.1341,-6.1377,-6.1476,-6.1463,-6.1583,-6.1477,-6.1476,-6.1464,-6.1457,-6.1467,-6.1603,-6.1606,-6.1609,-6.1611,0,-6.0536,-6.0541,-6.0637,-6.0737,-6.0815,-6.0894,-6.0967,-6.1022,-6.1036,-6.1115,-6.1229,-6.1296,-6.1429,-6.1537,-6.1635,-6.1674,-6.1645,-6.1644,-6.1675,-6.1678,-6.1668,-6.1674,-6.1317,-6.1636,-6.1633,-6.1631,-6.163,-6.1629,-6.0733,-6.0823,-6.0894,-6.1001,-6.1057,-6.1127,-6.1215,-6.1247,-6.1343,-6.1452,-6.1449,-6.1574,-6.1643,-6.1772,-6.1818,-6.1914,-6.1875,-6.1919,-6.1931,-6.1941,-6.1952,-6.1653,-6.1932,-6.1931,-6.1931,-6.193,-6.193,0,-6.1007,-6.1051,-6.115,-6.1254,-6.1338,-6.1304,-6.1384,-6.1456,-6.1567,-6.1634,-6.172,-6.1851,-6.1955,-6.1998,-6.21,-6.2169,-6.2158,-6.2195,-6.219,-6.2199,-6.1981,-6.1945,-6.2202,-6.2202,-6.2202,-6.2202,-6.2202,-6.2202,-6.116,-6.1311,-6.1325,-6.1502,-6.1544,-6.1667,-6.1716,-6.1779,-6.1833,-6.198,-6.2067,-6.2095,-6.2152,-6.2258,-6.2351,-6.2361,-6.2399,-6.2442,-6.2447,-6.2242,-6.2215,-6.2188,-6.2154,-6.2451,-6.2451,-6.2656,-6.2658,-6.2659]}]]